STARLINK-5694, 55481

Orbit data source: Space-Track

STARLINK-5694, 55481 is a payload satellite owned by SpaceX/Seattle (US) in LEO that was launched on Thu, 02 Feb 2023 UTC via an FALCON 9 launch vehicle from the Air Force Eastern Test Range (AFETR). Payload-class satellites include a variety of spacecraft equipped with specific instruments for various scientific and technological missions. These include communications satellites like Starlink; space stations such as the ISS; scientific satellites like the Hubble; Earth observation satellites from companies like Planet Labs, Umbra, and HawkEye 360; GPS; miniature CubeSats for education and research; and military/defense satellites.

Loading next visibility...
Identifier
55481, 2023-015AJ
Orbit
LEO
Country
Flag of USUS
Related business
Manufacturer
SpaceX/Seattle
Mission
Operational Commercial Communications
Bus & Motor
STARLINK, Unknown motor
Mass
305 kg wet, ~290 kg dry
Launch date (UTC)
2023-02-02 (3 years ago)
Launch vehicle
FALCON 9
Launch site
Air Force Eastern Test Range (AFETR)
Object type
Payload
Rocket body
Debris
Shape & HBR
Box + 1 Pan, 10.1 m
Radar Cross Section
13.562 m², Large (>1 m²)

Expand to show TLE details & history
Last TLE update: 1 day ago

TLE from 1 day ago
0 STARLINK-5694
1 55481U 23015AJ  25301.47516530  .00000591  00000-0  58849-4 0  9999
2 55481  43.0051 337.5590 0001476 279.8117  80.2558 15.02528322150715
Epoch: 2025-10-28T11:24Z
TLE epoch observation values (Epoch: 2025-10-28T11:24:14.281Z)
Latitude
-0.00008°
Longitude
129.43728°
Altitude
558.709 km
Speed
7.584 km/s
True Right ascension
22h 30m 14s
True Declination
0° 00' 00"
Sunlit
Object was in full shadow at epoch
Visualization orbit readout
Latitude
Unknown
Longitude
Unknown
Altitude
Unknown
Speed
Unknown
Apparent Right ascension
Unknown
Apparent Declination
Unknown
Sunlit
N/A
Visualization observer readout
Local Sidereal Time
18:39:42
Azimuth
Unknown
Elevation
Unknown
Doppler factor
Unknown
Orbital elements
Apogee altitude
562.05 km
Perigee altitude
560.002 km
Semi-major axis
6,939.163 km
Eccentricity
0.00015
Inclination
43.0051°
RAAN
337.559°
Arg. of periapsis
279.8117°
True anomaly
80.27247°
Mean anomaly
80.2558°
Eccentric anomaly
80.26414°
Mean motion
3.75476 °/min
Orbital period
95.88 mins
BSTAR
0.000058849
Loading maneuver chart data...
Computing Atmospheric mass density...
Loading historical data...
Loading historical data...
Loading historical data...
Loading historical data...
Loading historical data...
Loading historical data...
Loading historical data...

Documentation

Showing up to 5 results
|